| time (UTC) | temp F | wind direction | speed MPH | gust MPH | rain 1hr in | rain 24hr in | rain mn in | humidity % | barometer mb |
| 20260508144555 | 75 | 98 | 1.0 | 4.0 | 0.00 | 0.00 | 0.00 | 79 | 1015.1 |
| 20260508143100 | 74 | 69 | 2.0 | 7.0 | 0.00 | 0.00 | 0.00 | 81 | 1014.8 |
| 20260508141559 | 73 | 85 | 1.0 | 6.0 | 0.00 | 0.00 | 0.00 | 82 | 1015.0 |
| 20260508140100 | 73 | 67 | 0.0 | 3.0 | 0.00 | 0.00 | 0.00 | 82 | 1015.0 |
| 20260508134600 | 73 | 0 | 0.0 | 3.0 | 0.00 | 0.00 | 0.00 | 82 | 1015.0 |
| 20260508133050 | 73 | 0 | 1.0 | 6.0 | 0.00 | 0.00 | 0.00 | 82 | 1014.9 |
| 20260508131551 | 73 | 0 | 2.0 | 8.0 | 0.00 | 0.00 | 0.00 | 83 | 1014.4 |
| 20260508130050 | 73 | 351 | 1.0 | 4.0 | 0.00 | 0.00 | 0.00 | 83 | 1014.2 |
| 20260508124550 | 72 | 166 | 1.0 | 5.0 | 0.00 | 0.00 | 0.00 | 84 | 1014.6 |
| 20260508123106 | 72 | 159 | 1.0 | 6.0 | 0.00 | 0.00 | 0.00 | 87 | 1014.4 |
| 20260508121556 | 74 | 0 | 1.0 | 11.0 | 0.00 | 0.00 | 0.00 | 90 | 1014.1 |
| 20260508120055 | 75 | 0 | 0.0 | 3.0 | 0.00 | 0.00 | 0.00 | 92 | 1013.8 |
| 20260508114553 | 75 | 0 | 0.0 | 2.0 | 0.00 | 0.00 | 0.00 | 93 | 1013.4 |
| 20260508113100 | 75 | 252 | 0.0 | 2.0 | 0.00 | 0.00 | 0.00 | 93 | 1013.2 |
| 20260508111556 | 75 | 0 | 0.0 | 4.0 | 0.00 | 0.00 | 0.00 | 93 | 1013.0 |
| 20260508110053 | 75 | 0 | 0.0 | 2.0 | 0.00 | 0.00 | 0.00 | 93 | 1012.8 |
| 20260508104555 | 75 | 312 | 0.0 | 2.0 | 0.00 | 0.00 | 0.00 | 93 | 1012.4 |
| 20260508103056 | 75 | 304 | 0.0 | 6.0 | 0.00 | 0.00 | 0.00 | 93 | 1012.2 |
| 20260508101552 | 75 | 9 | 0.0 | 3.0 | 0.00 | 0.00 | 0.00 | 94 | 1012.2 |
| 20260508100049 | 76 | 294 | 1.0 | 4.0 | 0.00 | 0.00 | 0.00 | 93 | 1012.0 |
| 20260508094610 | 76 | 298 | 0.0 | 1.0 | 0.00 | 0.00 | 0.00 | 93 | 1011.9 |
| 20260508093050 | 76 | 298 | 1.0 | 4.0 | 0.00 | 0.00 | 0.00 | 92 | 1011.7 |
| 20260508091553 | 76 | 294 | 0.0 | 3.0 | 0.00 | 0.00 | 0.00 | 92 | 1011.5 |
| 20260508090052 | 76 | 249 | 1.0 | 8.0 | 0.00 | 0.00 | 0.00 | 91 | 1011.6 |
| 20260508084552 | 76 | 291 | 1.0 | 3.0 | 0.00 | 0.00 | 0.00 | 91 | 1011.4 |
| 20260508083053 | 76 | 305 | 1.0 | 6.0 | 0.00 | 0.00 | 0.00 | 91 | 1011.5 |
| 20260508081610 | 76 | 285 | 2.0 | 7.0 | 0.00 | 0.00 | 0.00 | 90 | 1011.4 |
| 20260508080055 | 76 | 275 | 4.0 | 9.0 | 0.00 | 0.00 | 0.00 | 90 | 1011.5 |
| 20260508074552 | 76 | 284 | 3.0 | 9.0 | 0.00 | 0.00 | 0.00 | 90 | 1011.5 |
| 20260508073052 | 77 | 259 | 3.0 | 8.0 | 0.00 | 0.00 | 0.00 | 90 | 1011.8 |
| 20260508071556 | 76 | 293 | 2.0 | 8.0 | 0.00 | 0.00 | 0.00 | 90 | 1012.0 |
| 20260508070057 | 76 | 292 | 4.0 | 8.0 | 0.00 | 0.00 | 0.00 | 89 | 1012.0 |
| 20260508064554 | 76 | 296 | 3.0 | 8.0 | 0.00 | 0.00 | 0.00 | 89 | 1012.0 |
| 20260508063103 | 77 | 258 | 1.0 | 8.0 | 0.00 | 0.00 | 0.00 | 88 | 1012.1 |
| 20260508061557 | 77 | 300 | 2.0 | 8.0 | 0.00 | 0.00 | 0.00 | 88 | 1012.2 |
| 20260508060057 | 77 | 270 | 2.0 | 9.0 | 0.00 | 0.00 | 0.00 | 87 | 1012.4 |
| 20260508054551 | 77 | 276 | 2.0 | 9.0 | 0.00 | 0.00 | 0.00 | 87 | 1012.3 |
| 20260508053051 | 77 | 240 | 2.0 | 6.0 | 0.00 | 0.00 | 0.00 | 86 | 1012.5 |
| 20260508051555 | 77 | 286 | 1.0 | 5.0 | 0.00 | 0.00 | 0.00 | 85 | 1012.5 |
| 20260508050110 | 78 | 253 | 2.0 | 7.0 | 0.00 | 0.00 | 0.00 | 85 | 1012.4 |
| 20260508044553 | 78 | 257 | 2.0 | 9.0 | 0.00 | 0.00 | 0.00 | 84 | 1012.4 |
| 20260508043053 | 78 | 246 | 4.0 | 11.0 | 0.00 | 0.00 | 0.00 | 83 | 1012.8 |
| 20260508041553 | 79 | 213 | 4.0 | 10.0 | 0.00 | 0.00 | 0.00 | 82 | 1012.4 |
| 20260508040058 | 79 | 284 | 4.0 | 11.0 | 0.00 | 0.00 | 0.00 | 80 | 1012.3 |
| 20260508034558 | 80 | 301 | 3.0 | 11.0 | 0.00 | 0.00 | 0.00 | 79 | 1012.4 |
| 20260508033055 | 80 | 309 | 5.0 | 13.0 | 0.00 | 0.00 | 0.00 | 78 | 1012.2 |
| 20260508031556 | 80 | 279 | 4.0 | 11.0 | 0.00 | 0.00 | 0.00 | 76 | 1012.0 |
| 20260508030100 | 81 | 215 | 3.0 | 10.0 | 0.00 | 0.00 | 0.00 | 75 | 1011.9 |
| 20260508024556 | 81 | 254 | 5.0 | 13.0 | 0.00 | 0.00 | 0.00 | 73 | 1011.9 |
| 20260508023055 | 82 | 302 | 4.0 | 12.0 | 0.00 | 0.00 | 0.00 | 70 | 1012.0 |
| 20260508021557 | 82 | 247 | 4.0 | 10.0 | 0.00 | 0.00 | 0.00 | 69 | 1011.7 |
| 20260508020100 | 83 | 297 | 5.0 | 12.0 | 0.00 | 0.00 | 0.00 | 67 | 1011.5 |
| 20260508014557 | 83 | 264 | 3.0 | 11.0 | 0.00 | 0.00 | 0.00 | 64 | 1011.5 |
| 20260508013052 | 84 | 297 | 4.0 | 9.0 | 0.00 | 0.00 | 0.00 | 63 | 1011.4 |
| 20260508011554 | 84 | 254 | 2.0 | 6.0 | 0.00 | 0.00 | 0.00 | 62 | 1011.2 |
| 20260508010053 | 84 | 265 | 2.0 | 4.0 | 0.00 | 0.00 | 0.00 | 61 | 1010.8 |
| 20260508004557 | 85 | 268 | 1.0 | 4.0 | 0.00 | 0.00 | 0.00 | 60 | 1010.8 |
| 20260508003053 | 85 | 267 | 3.0 | 9.0 | 0.00 | 0.00 | 0.00 | 58 | 1010.7 |
| 20260508001556 | 86 | 286 | 2.0 | 7.0 | 0.00 | 0.00 | 0.00 | 57 | 1010.6 |
| 20260508000053 | 86 | 288 | 2.0 | 7.0 | 0.00 | 0.00 | 0.00 | 56 | 1010.7 |
| 20260507234550 | 87 | 298 | 3.0 | 9.0 | 0.00 | 0.00 | 0.00 | 54 | 1010.7 |
| 20260507233055 | 87 | 283 | 2.0 | 9.0 | 0.00 | 0.00 | 0.00 | 53 | 1010.8 |
| 20260507231556 | 88 | 292 | 3.0 | 7.0 | 0.00 | 0.00 | 0.00 | 53 | 1010.1 |
| 20260507230105 | 88 | 290 | 3.0 | 9.0 | 0.00 | 0.00 | 0.00 | 53 | 1010.2 |
| 20260507224559 | 89 | 288 | 4.0 | 10.0 | 0.00 | 0.00 | 0.00 | 52 | 1010.1 |
| 20260507223053 | 89 | 292 | 5.0 | 14.0 | 0.00 | 0.00 | 0.00 | 52 | 1009.9 |
| 20260507221556 | 88 | 232 | 5.0 | 13.0 | 0.00 | 0.00 | 0.00 | 54 | 1009.9 |
| 20260507220058 | 88 | 281 | 4.0 | 13.0 | 0.00 | 0.00 | 0.00 | 58 | 1010.0 |
| 20260507214605 | 87 | 234 | 5.0 | 15.0 | 0.00 | 0.00 | 0.00 | 60 | 1009.9 |
| 20260507213057 | 85 | 190 | 6.0 | 16.0 | 0.00 | 0.00 | 0.00 | 62 | 1009.4 |
| 20260507211556 | 85 | 242 | 4.0 | 11.0 | 0.00 | 0.00 | 0.00 | 62 | 1009.4 |
| 20260507204552 | 84 | 223 | 3.0 | 12.0 | 0.00 | 0.00 | 0.00 | 65 | 1010.7 |
| 20260507203109 | 84 | 312 | 3.0 | 13.0 | 0.00 | 0.00 | 0.00 | 66 | 1011.4 |
| 20260507201600 | 84 | 290 | 4.0 | 13.0 | 0.00 | 0.00 | 0.00 | 66 | 1011.4 |
| 20260507200106 | 84 | 242 | 6.0 | 10.0 | 0.00 | 0.00 | 0.00 | 65 | 1011.5 |
| 20260507194552 | 85 | 275 | 5.0 | 15.0 | 0.00 | 0.00 | 0.00 | 65 | 1011.7 |
| 20260507193058 | 85 | 300 | 5.0 | 12.0 | 0.00 | 0.00 | 0.00 | 64 | 1011.8 |
| 20260507191552 | 84 | 262 | 5.0 | 19.0 | 0.00 | 0.00 | 0.00 | 65 | 1012.4 |
| 20260507190058 | 84 | 280 | 4.0 | 15.0 | 0.00 | 0.00 | 0.00 | 67 | 1012.8 |
| 20260507184600 | 84 | 5 | 6.0 | 15.0 | 0.00 | 0.00 | 0.00 | 66 | 1012.9 |
| 20260507183101 | 86 | 310 | 4.0 | 14.0 | 0.00 | 0.00 | 0.00 | 63 | 1013.0 |
| 20260507181601 | 86 | 334 | 4.0 | 12.0 | 0.00 | 0.00 | 0.00 | 64 | 1013.3 |
| 20260507180057 | 86 | 311 | 4.0 | 11.0 | 0.00 | 0.00 | 0.00 | 62 | 1013.3 |
| 20260507174557 | 87 | 267 | 5.0 | 15.0 | 0.00 | 0.00 | 0.00 | 54 | 1013.6 |
| 20260507173102 | 87 | 304 | 3.0 | 9.0 | 0.00 | 0.00 | 0.00 | 54 | 1013.8 |
| 20260507171604 | 87 | 296 | 5.0 | 11.0 | 0.00 | 0.00 | 0.00 | 55 | 1013.8 |
| 20260507164603 | 88 | 250 | 6.0 | 11.0 | 0.00 | 0.00 | 0.00 | 56 | 1014.0 |
| 20260507163059 | 87 | 297 | 4.0 | 11.0 | 0.00 | 0.00 | 0.00 | 59 | 1014.1 |
| 20260507161555 | 86 | 251 | 6.0 | 16.0 | 0.00 | 0.00 | 0.00 | 63 | 1014.1 |
| 20260507160056 | 86 | 330 | 4.0 | 12.0 | 0.00 | 0.00 | 0.00 | 64 | 1014.0 |
| 20260507154556 | 86 | 300 | 5.0 | 15.0 | 0.00 | 0.00 | 0.00 | 64 | 1014.4 |
| 20260507153050 | 86 | 299 | 6.0 | 12.0 | 0.00 | 0.00 | 0.00 | 64 | 1014.1 |
| 20260507151550 | 85 | 292 | 3.0 | 8.0 | 0.00 | 0.00 | 0.00 | 67 | 1014.0 |
| 20260507150051 | 83 | 250 | 2.0 | 4.0 | 0.00 | 0.00 | 0.00 | 70 | 1013.8 |